Location: Newark
(41.0400°S, 62.7845°W)
Time: 16:30:11
(UTC+00:00)

Vanguard 2 Rocket - Pass Details

Date: 28 November 2021
Orbit: 553 x 3325 km, 32.9° (Epoch: 23 January)

Event Time Altitude Azimuth Distance (km) Brightness Sun altitude
Rises 07:27:06 0° 350° (N) 7,262 11.0 -11.2°
Reaches altitude 10° 07:36:02 10° 10° (N) 5,969 10.8 -9.9°
Maximum altitude 07:43:37 14° 35° (NE) 5,190 10.7 -8.8°
Drops below altitude 10° 07:50:08 10° 62° (ENE) 5,034 11.0 -7.8°
Sets 07:56:10 0° 84° (E) 5,462 11.7 -6.9°
